Powrót do katalogu

STARLINK-31786

AktywnyŁącznośćVLEO
NORAD 59771·PAYLOAD·🇺🇸 United States

Wystrzelony May 14, 2024 z Vandenberg Space Force Base

Loading…

Następne Przeloty (najbliższe 24 godziny)

TLE

ŚwieżeSource: CelesTrak SupGP

Epoka: Sep 15, 2026, 03:32 UTC

1 59771C 24091U   26258.14770833 -.00054458  00000+0 -16089-2 0  2582
2 59771  53.1586 226.4213 0001356  88.9979  54.4881 15.34418370    11

Śledź STARLINK-31786 w czasie rzeczywistym z AllMySat

Download on the App Store